Starlink 36209

operational
NORAD ID: 67022 Int'l Des: 2025-293 Owner: SPXS Country: US Constellation: starlink
LEOCIRCULAR

Über Starlink 36209

Beschreibung wird geladen...

Live-Position

3D-Globus wird geladen...

Nächste Überflüge

Höhenverlauf

Altitude vs Time

uPlot chart will show altitude changes over time

Zweizeiliger Elementsatz

1 67022C 25293V 25346.10187500 -.00043985 00000+0 -59454-4 0 3467
2 67022 69.9969 325.9319 0004852 267.0710 188.8295 16.06198450 13
Epoch: 12. Dez. 2025 • Age: 55 hours

Aktueller Status

Höhe 280.2 km
Geschwindigkeit 7.74 km/s
Subsatellitenpunkt -69.98°S, 40.21°E
Startdatum 10. Dez. 2025
Alter 3 days
Typ internet

Technische Details

Klassifizierung Payload
Masse 575.00 kg
Trockenmasse 530.00 kg
Gesamtmasse 575.00 kg
Länge 0.30 m
Durchmesser 4.10 m
Spannweite 29.00 m
Form Box + pan
Hersteller SPXS
Bus-Typ Starlink V2MO
Phasenstatus In Orbit
Besitzer/Staat SPXS/US

Große Konstellationen

Loading constellations...